Location: Pedholt
(56.0260°N, 10.2097°E)
Time: 11:56:07
(UTC+00:00)

deb Explorer IX - All Passes

Search period start: 04 August 2021 00:00
Search period end: 14 August 2021 00:00
Orbit: 544 x 1093 km, 38.8° (Epoch: 03 August)

Date Brightness Start Highest point End Pass type
(mag) Time Alt. Az. Time Alt. Az. Time Alt. Az.
04 Aug - 12:45:32 10° S 12:46:57 11° S 12:48:25 10° SSE daylight
04 Aug - 14:31:07 10° SSW 14:32:22 11° S 14:33:40 10° S daylight
05 Aug - 12:21:59 10° S 12:22:50 10° S 12:23:41 10° SSE daylight
05 Aug - 14:07:51 10° SSW 14:08:14 10° S 14:08:38 10° S daylight
